Погода в Кауаяне

Филиппины     9°58′22″N   122°36′33″E
темп.,
°C
ветер,
м/с
пор.,
м/с
влажн.,
%
обл.,
%
осадки,
мм/ч
давл.,
гПа
погр.,
м
22 октября, пт
пт2223:00+28ссв5680100 0.7 1011481
02:00+28св678136 0.7 1009597
05:00+27св688394 0.2 1009678
08:00+28св898327 1.3 1011759
11:00+28св777885 0.5 1011675
14:00+28св8878100 0.9 1009639
17:00+28ссв8879100 0.1 1009759
20:00+28св787677 0.2 1011700
23 октября, сб
сб2323:00+27св8980100 0.0 1012635
02:00+26св6785100 0.6 1010499
05:00+27св5679100 0.3 1009569
08:00+27св6780100 0.4 1011733
11:00+28св667647 0.0 1010751
14:00+29ссв787472 0.1 1008856
17:00+28ссв7876100 0.8 1008838
20:00+27св6782100 6.8 1010513
24 октября, вс
вс2423:00+27св2380100 9.9 1010239
02:00+26юз2281100 15.4 1008152
05:00+26ю238075 0.2 1008236
08:00+27в2375100 1.6 1010279
11:00+28ююв2475100 2.5 1010342
14:00+27ю5883100 9.0 1007514
17:00+27ю588275 4.6 1008598
20:00+26ю5983100 6.1 1010617
25 октября, пн
пн2523:00+26ю51083100 2.0 1010646
02:00+26ююз4785100 5.6 1009572
05:00+26ю3585100 2.8 1009401
08:00+26ю2384100 3.4 1010353
11:00+27ююз238062 3.0 1010299
14:00+29юз447199 4.4 1007692
17:00+27ююз3379100 1.8 1008200
20:00+27ююз227851 2.8 1010170
26 октября, вт
вт2623:00+27ю227949 0.4 1010160
02:00+26вюв21776 1.1 1009160
05:00+26вюв217534 0.1 1009169
08:00+27в11725 0.1 1011244
11:00+28с21717 0.0 1010374
14:00+28ссз327016 0.0 1008435
17:00+28з22706 0.0 1008334
20:00+28зсз117018 0.0 1010281